Location: Bruch
(44.2051°N, 0.4120°E)
Time: 05:27:07
(UTC+00:00)

Lacrosse 4 Rocket - Pass Details

Date: 29 November 2020
Orbit: 537 x 620 km, 68.0° (Epoch: 24 January)

Event Time Altitude Azimuth Distance (km) Brightness Sun altitude
Exits shadow 03:38:20 13° 98° (E) 1,743 4.5 -37.6°
Drops below altitude 10° 03:39:00 10° 104° (ESE) 1,946 4.8 -37.5°
Sets 03:41:37 0° 118° (ESE) 2,859 5.7 -37.0°
